Location: Mesa
(33.4220°N, 111.8220°W)
Time: 09:01:32
(UTC-07:00)

ISS - Pass Details

Date: 24 November 2019
Orbit: 411 x 421 km, 51.6° (Epoch: 11 December)

Event Time Altitude Azimuth Distance (km) Brightness Sun altitude
Rises 18:05:13 0° 255° (WSW) 2,342 2.4 -9.4°
Reaches altitude 10° 18:07:36 10° 270° (W) 1,485 0.4 -9.9°
Maximum altitude 18:10:18 23° 325° (NW) 946 -1.8 -10.5°
Drops below altitude 10° 18:13:02 10° 19° (NNE) 1,495 -1.3 -11.0°
Enters shadow 18:13:31 - 24° (NNE) 1,658 -1.1 -11.1°
